Station JMPN7 - 8658163 - Wrightsville Beach, NC Image indicating link to RSS feed of recent meteorological observations for station JMPN7


Conditions at JMPN7 as of
(9:00 pm EDT on 04/20/2024)
0100 GMT on 04/21/2024:
     

Click on the graph icon in the table below to see a time series plot of the last five days of that observation.

5-day plot - Wind Direction Wind Direction (WDIR): W ( 260 deg true )
5-day plot - Wind Speed Wind Speed (WSPD): 5.1 kts
5-day plot - Wind Gust Wind Gust (GST): 7.0 kts
5-day plot - Atmospheric Pressure Atmospheric Pressure (PRES):29.89 in
5-day plot - Pressure Tendency Pressure Tendency (PTDY):+0.03 in ( Rising )
5-day plot - Air Temperature Air Temperature (ATMP): 72.5 °F
5-day plot - Water Temperature Water Temperature (WTMP): 67.3 °F
5-day plot - Wind Speed at 10 Meters Wind Speed at 10 meters (WSPD10M): 5.8 kts
5-day plot - Wind Speed at 20 Meters Wind Speed at 20 meters (WSPD20M): 5.8 kts
5-day plot -  Wind Speed, Wind Gust and Atmospheric Pressure Combined plot of Wind Speed, Gust, and Air Pressure
NOS Water Level Observation Network Water Level
Previous observations
TIME
(EDT)
5-day plot - Wind Direction
WDIR
 
5-day plot - Wind Speed
WSPD
kts
5-day plot - Wind Gust
GST
kts
5-day plot - Wave Height
WVHT
ft
5-day plot - Dominant Wave Period
DPD
sec
5-day plot - Average Wave Period
APD
sec
5-day plot - Mean Wave Direction
MWD
 
5-day plot - Atmospheric Pressure
PRES
in
5-day plot - Pressure Tendency
PTDY
in
5-day plot - Air Temperature
ATMP
°F
5-day plot - Water Temperature
WTMP
°F
5-day plot - Dew Point
DEWP
°F
5-day plot - Salinity
SAL
psu
5-day plot - Visibility
VIS
nmi
5-day plot - Tide (above MLLW)
TIDE
ft
2024-04-20 08:54 pm W 5.1 6.0----29.89- 72.9 67.5----
2024-04-20 08:48 pm W 5.1 8.0----29.88- 73.0 67.6----
2024-04-20 08:42 pm W 6.0 7.0----29.88- 73.0 67.6----
2024-04-20 08:36 pm W 5.1 7.0----29.88- 73.0 67.6----
2024-04-20 08:30 pmWNW 5.1 8.0----29.88- 72.9 67.6----
2024-04-20 08:24 pm W 6.0 11.1----29.88- 72.7 67.6----
2024-04-20 08:18 pmWSW 7.0 8.9------ 72.7 67.8----
2024-04-20 08:12 pmWSW 6.0 8.9------ 72.5 67.8----
2024-04-20 08:06 pm SW 8.0 8.9------ 72.0 67.6----
2024-04-20 08:00 pmWSW 5.1 7.0----29.87+0.00 71.8 67.6----
2024-04-20 07:54 pm W 5.1 9.9----29.88- 71.8 67.6----
2024-04-20 07:48 pmWSW 9.9 12.0----29.89-- 67.5----
2024-04-20 07:42 pmSSW 12.0 12.0----29.87-- 67.8----
2024-04-20 07:36 pm SW 8.0 8.9----29.88-- 67.6----
2024-04-20 07:30 pm SW 5.1 8.9----29.88- 73.2 67.3----
2024-04-20 07:24 pm SW 7.0 8.9----29.89- 73.6 67.5----
2024-04-20 07:00 pmWSW 12.0 17.1----29.88+0.00 71.4 67.6----
2024-04-20 06:54 pmSSW 11.1 15.9----29.88- 71.4 67.1----
2024-04-20 06:48 pmWSW 17.1 26.0----29.88- 72.7 66.9----
2024-04-20 06:42 pmWSW 15.9 22.0----29.88- 72.5 66.7----
2024-04-20 06:36 pm S 18.1 19.0----29.86- 73.4 66.7----
2024-04-20 06:30 pm S 14.0 17.1----29.86- 72.7 66.7----
2024-04-20 06:24 pm S 12.0 17.1----29.87- 71.4 66.7----
2024-04-20 06:18 pmSSE 6.0 9.9----29.88- 71.1 66.7----
2024-04-20 06:12 pmSSE 8.9 11.1----29.87- 71.1 66.7----
2024-04-20 06:06 pm SE 6.0 7.0----29.87- 71.1 66.7----
2024-04-20 06:00 pm-------29.87-0.04 70.7 66.7----
2024-04-20 05:54 pm-------29.87- 70.7 66.7----
2024-04-20 05:48 pm SE 2.9 5.1----29.88- 71.1 66.7----
2024-04-20 05:42 pm SE 5.1 6.0----29.88- 70.9 66.7----
2024-04-20 05:36 pm E 1.9 5.1----29.88- 70.2 66.7----
2024-04-20 05:30 pm E 5.1 6.0----29.88- 70.0 66.7----
2024-04-20 05:24 pm E 5.1 6.0----29.87- 70.0 66.7----
2024-04-20 05:18 pmNNE 4.1 5.1----29.87- 70.3 66.7----
2024-04-20 05:12 pm SE 4.1 6.0----29.87- 71.6 66.9----
2024-04-20 05:06 pm SE 6.0 8.0----29.87- 70.9 66.7----
2024-04-20 05:00 pm SE 8.0 8.9----29.87-0.07 70.3 66.7----
2024-04-20 04:54 pmSSE 7.0 8.0----29.88- 70.2 66.7----
2024-04-20 04:48 pm SE 7.0 9.9----29.88-- 66.9----
2024-04-20 04:42 pm SE 9.9 11.1----29.87-- 66.6----
2024-04-20 04:36 pm SE 8.9 9.9----29.87-- 66.7----
2024-04-20 04:30 pm SE 8.0 8.9----29.88- 70.3 66.7----
2024-04-20 04:24 pmSSE 7.0 8.9----29.88- 70.3 66.6----
2024-04-20 04:18 pmSSE 8.0 9.9------ 70.7 66.6----
2024-04-20 04:12 pmSSE 8.9 9.9------ 70.9 66.6----
2024-04-20 04:06 pm S 8.9 9.9------ 71.8 66.7----
2024-04-20 04:00 pm-------29.88-0.07 72.1 66.7----
2024-04-20 03:54 pm-------29.89- 72.0 67.1----
2024-04-20 03:48 pm S 8.9 8.9----29.88- 72.0 66.9----
2024-04-20 03:42 pm S 8.0 9.9----29.89- 72.0 66.9----
2024-04-20 03:36 pm S 8.9 11.1----29.90- 71.8 66.9----
2024-04-20 03:30 pm S 9.9 12.0----29.90- 71.8 66.7----
2024-04-20 03:24 pm S 11.1 12.0----29.89- 72.1 66.6----
2024-04-20 03:18 pm S 9.9 9.9----29.90- 72.1 66.7----
2024-04-20 03:12 pm S 8.9 11.1----29.91- 71.8 66.7----
2024-04-20 03:06 pmSSE 9.9 13.0----29.91- 71.1 66.7----
2024-04-20 03:00 pmSSE 12.0 13.0----29.90-0.07------
2024-04-20 02:54 pmSSE 11.1 14.0----29.91-------
2024-04-20 02:48 pm S 12.0 12.0----29.91- 71.8 66.7----
2024-04-20 02:42 pm S 11.1 12.0----29.92- 72.3 66.7----
2024-04-20 02:36 pm S 6.0 7.0----29.93- 72.9 66.7----
2024-04-20 02:30 pm S 5.1 7.0------ 72.7 66.7----
2024-04-20 02:24 pm S 6.0 7.0------ 72.3 66.7----
2024-04-20 02:18 pm S 5.1 6.0----29.94- 72.3 66.7----
2024-04-20 02:12 pm S 6.0 6.0----29.94- 72.3 66.9----
2024-04-20 02:06 pm S 4.1 5.1----29.94- 72.1 66.9----
2024-04-20 02:00 pm S 5.1 6.0----29.94-0.02 72.1 66.9----
2024-04-20 01:54 pm S 5.1 8.9----29.95- 71.8 66.9----
2024-04-20 01:48 pm S 7.0 8.0----29.95- 71.6 66.9----
2024-04-20 01:42 pm S 5.1 7.0----29.95- 71.4 66.9----
2024-04-20 01:36 pm S 6.0 8.9----29.96- 71.2 66.9----
2024-04-20 01:30 pm S 8.0 8.0----29.96- 71.1 67.1----
2024-04-20 01:24 pm S 7.0 8.0----29.96- 71.1 67.3----
2024-04-20 01:18 pm S 7.0 8.9----29.95- 71.2 67.1----
2024-04-20 01:12 pm S 7.0 8.0----29.95- 71.4 67.1----
2024-04-20 01:06 pm S 6.0 7.0----29.95- 71.2 67.1----
2024-04-20 01:00 pm S 5.1 6.0----29.95-0.02 71.2 67.1----
2024-04-20 12:54 pm S 6.0 7.0----29.96- 71.1 66.9----
2024-04-20 12:48 pm S 6.0 6.0----29.96- 71.2 66.9----
2024-04-20 12:42 pm S 6.0 7.0----29.96- 71.1 66.9----
2024-04-20 12:36 pm S 5.1 7.0----29.96- 71.1 66.9----
2024-04-20 12:30 pm S 7.0 8.0----29.97- 70.7 66.9----
2024-04-20 12:24 pm S 8.0 8.9----29.96- 70.5 66.9----
2024-04-20 12:18 pm S 8.0 8.9----29.97- 70.5 67.1----
2024-04-20 12:12 pm S 7.0 8.0----29.97- 70.5 66.9----
2024-04-20 12:06 pm S 6.0 8.0----29.97- 70.3 66.9----
2024-04-20 12:00 pm S 8.0 9.9----29.97+0.00 70.3 66.7----
2024-04-20 11:54 am S 9.9 11.1----29.97- 70.2 66.7----
2024-04-20 11:48 am S 9.9 11.1----29.96- 70.3 67.1----
2024-04-20 11:42 am S 8.9 9.9----29.97- 70.5 67.1----
2024-04-20 11:36 am S 8.0 8.9----29.97- 70.5 67.1----
2024-04-20 11:30 am S 8.0 8.9----29.97- 70.5 66.9----
2024-04-20 11:24 am S 8.9 9.9----29.97- 70.3 66.7----
2024-04-20 11:18 am S 8.9 9.9----29.97- 70.2 66.7----
2024-04-20 11:12 am S 9.9 11.1----29.97- 70.2 66.7----
2024-04-20 11:06 am S 9.9 11.1----29.97- 70.0 66.7----
2024-04-20 11:00 am S 11.1 11.1----29.97+0.02 70.2 66.6----
2024-04-20 10:54 am S 9.9 9.9----29.97- 70.0 66.6----
2024-04-20 10:48 am S 8.9 9.9----29.97- 70.0 66.6----
2024-04-20 10:42 am S 8.9 9.9----29.97- 69.6 66.6----
2024-04-20 10:36 am S 7.0 8.0----29.97- 69.8 66.6----
2024-04-20 10:30 am S 8.0 8.9----29.97- 70.0 66.4----
2024-04-20 10:24 am S 8.0 8.9----29.97- 70.2 66.4----
2024-04-20 10:18 am S 7.0 8.0----29.97- 70.3 66.4----
2024-04-20 10:12 am S 7.0 8.0----29.97- 70.5 66.4----
2024-04-20 10:06 am S 5.1 5.1----29.98- 70.9 66.4----
2024-04-20 10:00 am S 4.1 5.1----29.98+0.02 70.9 66.4----
2024-04-20 09:54 am S 4.1 5.1----29.97- 70.7 66.4----
2024-04-20 09:48 am S 5.1 5.1----29.97-- 66.4----
2024-04-20 09:42 am S 4.1 4.1----29.97-- 66.2----
2024-04-20 09:36 am S 2.9 4.1----29.97-- 66.2----
2024-04-20 09:30 amSSW 4.1 6.0----29.97- 69.6 66.2----
2024-04-20 09:24 amSSW 6.0 7.0----29.97- 69.3 66.2----
2024-04-20 09:18 amSSW 6.0 7.0----29.97- 68.7 66.0----
2024-04-20 09:12 am SW 6.0 7.0----29.98- 68.2 66.0----
2024-04-20 09:06 amSSW 7.0 7.0----29.97- 68.2 66.0----
2024-04-20 09:00 amSSW 6.0 8.0----29.97+0.00 68.0 66.0----
2024-04-20 08:54 am S 8.0 8.9----29.96- 68.2 66.0----
2024-04-20 08:48 am S 8.0 8.9----29.96- 68.2 65.8----
2024-04-20 08:42 amSSW 8.0 11.1----29.96- 68.0 65.8----
2024-04-20 08:36 amSSW 11.1 12.0----29.96- 68.0 65.8----
2024-04-20 08:30 amSSW 11.1 11.1----29.96- 68.0 65.8----
2024-04-20 08:24 amSSW 8.9 11.1----29.95- 68.2 65.8----
2024-04-20 08:18 amSSW 9.9 11.1----29.95- 68.4 65.8----
2024-04-20 08:12 amSSW 8.9 9.9----29.95- 68.4 65.8----
2024-04-20 08:06 amSSW 9.9 9.9----29.95- 68.0 65.8----
2024-04-20 08:00 amSSW 8.9 11.1----29.95+0.01 68.0 65.8----
2024-04-20 07:54 amSSW 11.1 12.0----29.95- 68.0 65.8----
2024-04-20 07:48 amSSW 11.1 12.0----29.95- 67.8 65.8----
2024-04-20 07:42 amSSW 9.9 9.9----29.95- 67.6 65.8----
2024-04-20 07:36 amSSW 9.9 11.1----29.95- 67.6 65.8----
2024-04-20 07:30 amSSW 9.9 12.0----29.96- 67.5 65.8----
2024-04-20 07:24 amSSW 9.9 11.1----29.95- 66.9 65.8----
2024-04-20 07:18 amSSW 8.9 9.9----29.95- 66.6 65.8----
2024-04-20 07:12 amSSW 8.0 8.9----29.95- 66.6 66.0----
2024-04-20 07:06 amSSW 6.0 6.0----29.96- 66.7 66.0----
2024-04-20 07:00 amWSW 1.9 5.1----29.95+0.00 67.1 66.0----
2024-04-20 06:54 amWSW 2.9 5.1----29.95- 67.1 66.0----
2024-04-20 06:48 amWSW 2.9 5.1----29.96- 67.1 66.0----
2024-04-20 06:42 am N 1.9 5.1----29.96- 67.1 66.0----
2024-04-20 06:36 am N 2.9 2.9----29.95- 67.1 66.0----
2024-04-20 06:30 am N 2.9 4.1----29.96-- 66.0----
2024-04-20 06:24 am N 1.0 1.9----29.96-- 66.0----
2024-04-20 06:18 am N 1.0 5.1----29.96- 67.1 66.0----
2024-04-20 06:12 am N 4.1 6.0----29.97- 67.1 66.0----
2024-04-20 06:06 amWSW 6.0 8.0----29.97- 67.5 66.0----
2024-04-20 06:00 am W 5.1 7.0----29.97+0.02- 66.0----
2024-04-20 05:54 amWSW 6.0 7.0----29.97-- 66.0----
2024-04-20 05:48 amWSW 5.1 6.0----29.96- 66.7 66.0----
2024-04-20 05:42 am W 2.9 5.1----29.96- 66.6 66.0----
2024-04-20 05:36 am W 2.9 12.0----29.97- 66.4 66.0----
2024-04-20 05:30 amWNW 5.1 7.0----29.96- 66.2 66.0----
2024-04-20 05:24 am SW 4.1 5.1----29.94- 66.0 66.0----
2024-04-20 05:18 amSSW 5.1 6.0----29.94- 65.8 66.0----
2024-04-20 05:12 am S 5.1 6.0----29.94- 65.8 66.0----
2024-04-20 05:06 am S 5.1 5.1----29.94- 65.8 66.0----
2024-04-20 05:00 am S 5.1 5.1----29.93-0.03 65.8 66.0----
2024-04-20 04:54 am S 4.1 4.1----29.93- 65.8 66.0----
2024-04-20 04:48 am S 4.1 4.1----29.94- 65.7 66.0----
2024-04-20 04:42 am S 2.9 4.1----29.94- 65.7 66.0----
2024-04-20 04:36 am S 2.9 2.9----29.94- 65.5 66.0----
2024-04-20 04:30 am S 2.9 2.9----29.94-- 66.0----
2024-04-20 04:24 am S 2.9 4.1----29.94-- 66.0----
2024-04-20 04:18 am S 2.9 4.1----29.94- 65.3 66.0----
2024-04-20 04:12 am S 4.1 4.1----29.95- 65.3 66.0----
2024-04-20 04:06 am S 4.1 4.1----29.95- 65.3 66.0----
2024-04-20 04:00 am-------29.95-0.03- 66.0----
2024-04-20 03:54 am-------29.95-- 66.0----
2024-04-20 03:48 am SW 1.9 1.9----29.95- 65.1 66.0----
2024-04-20 03:42 am SW 1.9 1.9----29.95- 65.1 66.0----
2024-04-20 03:36 am SW 1.9 2.9----29.95- 65.1 66.0----
2024-04-20 03:30 am SW 2.9 2.9----29.95- 65.3 66.0----
2024-04-20 03:24 am SW 1.9 2.9----29.95- 65.3 66.0----
2024-04-20 03:18 am SW 1.9 2.9----29.95- 65.3 66.0----
2024-04-20 03:12 amWSW 2.9 2.9----29.95- 64.9 66.0----
2024-04-20 03:06 amSSW 2.9 2.9----29.95- 64.8 66.0----
2024-04-20 03:00 amSSW 1.9 2.9----29.94-0.04 64.6 66.0----
2024-04-20 02:54 am SW 1.9 2.9----29.95- 64.6 66.0----
2024-04-20 02:48 am SW 2.9 2.9----29.95- 64.6 66.0----
2024-04-20 02:42 am SW 2.9 2.9----29.96- 64.6 65.8----
2024-04-20 02:36 am SW 1.9 1.9----29.96- 64.4 66.0----
2024-04-20 02:30 am SW 1.9 1.9----29.96- 64.6 66.0----
2024-04-20 02:24 am SW 1.9 1.9----29.96- 64.6 66.0----
2024-04-20 02:18 am SW 1.0 1.9----29.96- 64.6 66.0----
2024-04-20 02:12 amSSW 1.9 2.9----29.96- 64.8 66.0----
2024-04-20 02:06 amSSW 1.9 2.9----29.96- 64.8 66.0----
2024-04-20 02:00 amSSW 2.9 4.1----29.96-0.02 64.9 66.0----
2024-04-20 01:54 amSSW 2.9 4.1----29.96- 64.9 66.0----
2024-04-20 01:48 amSSW 2.9 4.1----29.96- 64.9 66.0----
2024-04-20 01:42 amSSW 2.9 4.1----29.96- 64.9 66.0----
2024-04-20 01:36 amSSW 4.1 4.1----29.97- 64.9 66.0----
2024-04-20 01:30 am S 2.9 2.9----29.97- 64.9 66.0----
2024-04-20 01:24 am S 2.9 2.9----29.97- 64.9 66.0----
2024-04-20 01:18 am S 2.9 5.1----29.97- 64.9 66.0----
2024-04-20 01:12 am S 4.1 5.1----29.98- 64.9 66.0----
2024-04-20 01:06 am S 5.1 5.1----29.98- 65.1 66.0----
2024-04-20 01:00 am S 5.1 5.1----29.98-0.01 64.9 66.0----
2024-04-20 12:54 am S 5.1 6.0----29.98- 65.1 66.0----
2024-04-20 12:48 am S 6.0 7.0----29.98- 65.1 66.0----
2024-04-20 12:42 am S 5.1 6.0----29.98- 65.3 66.0----
2024-04-20 12:36 am S 6.0 6.0----29.98- 65.3 66.2----
2024-04-20 12:30 am S 6.0 7.0----29.98- 65.1 66.2----
2024-04-20 12:24 am S 7.0 7.0----29.98- 64.9 66.2----
2024-04-20 12:18 am S 6.0 6.0----29.98- 65.1 65.8----
2024-04-20 12:12 am S 6.0 6.0----29.98- 65.5 66.0----
2024-04-20 12:06 am S 5.1 6.0----29.99- 65.7 65.8----
2024-04-20 12:00 am S 5.1 5.1----29.99+0.00 66.0 65.8----
2024-04-19 11:54 pmSSE 2.9 4.1----29.99- 66.0 65.8----
2024-04-19 11:48 pm SE 2.9 2.9----29.99- 65.8 65.8----
2024-04-19 11:42 pmESE 2.9 2.9----29.99- 65.7 65.8----
2024-04-19 11:36 pm E 2.9 4.1----29.98- 65.7 65.8----
2024-04-19 11:30 pm E 2.9 4.1----29.98- 65.7 65.8----
2024-04-19 11:24 pm E 2.9 2.9----29.98- 65.7 65.8----
2024-04-19 11:18 pm E 2.9 4.1----29.98- 65.7 65.8----
2024-04-19 11:12 pmENE 2.9 2.9----29.98- 65.5 65.8----
2024-04-19 11:06 pmENE 2.9 4.1----29.98- 65.5 65.7----
2024-04-19 11:00 pmENE 4.1 4.1----29.98+0.01 65.5 65.7----
2024-04-19 10:54 pmENE 4.1 4.1----29.98- 65.7 65.7----
2024-04-19 10:48 pmENE 4.1 4.1----29.98- 65.7 65.3----
2024-04-19 10:42 pmENE 2.9 4.1----29.99- 65.7 65.3----
2024-04-19 10:36 pmENE 2.9 2.9----29.99- 65.7 65.3----
2024-04-19 10:30 pmENE 2.9 2.9----29.99- 65.5 65.3----
2024-04-19 10:24 pmENE 2.9 2.9----29.99- 65.5 65.3----
2024-04-19 10:18 pmENE 2.9 4.1----29.99- 65.5 65.3----
2024-04-19 10:12 pmENE 4.1 4.1----29.99- 65.5 65.3----
2024-04-19 10:06 pmENE 4.1 4.1----29.99- 65.5 65.5----
2024-04-19 10:00 pm E 4.1 4.1----29.99+0.02 65.5 65.3----
2024-04-19 09:54 pmENE 5.1 5.1----29.99- 65.3 65.3----
2024-04-19 09:48 pmENE 4.1 6.0----29.99- 65.3 65.3----
2024-04-19 09:42 pmENE 5.1 6.0----29.99- 65.3 65.3----
2024-04-19 09:36 pmENE 6.0 7.0----29.99- 65.1 65.3----
2024-04-19 09:30 pm NE 6.0 7.0----29.99- 65.1 65.3----
2024-04-19 09:24 pm NE 6.0 8.0----29.99- 65.1 65.3----
2024-04-19 09:18 pm NE 7.0 8.0----29.99- 65.1 65.3----
2024-04-19 09:12 pm NE 7.0 8.0----29.99- 64.9 65.3----
2024-04-19 09:06 pm NE 8.0 8.0----29.99- 64.9 65.3----
2024-04-19 09:00 pm NE 7.0 7.0----29.99+0.02 64.9 65.3----
2024-04-19 08:54 pm NE 6.0 7.0----29.99- 64.9 65.3----